| time (UTC) | temp F | wind direction | speed MPH | gust MPH | rain 1hr in | rain 24hr in | rain mn in | humidity % | barometer mb |
| 20260906171804 | 82 | 225 | 26.0 | 26.0 | 0.00 | 0.00 | 0.00 | 73 | 1019.1 |
| 20260906170903 | 83 | 315 | 0.0 | 1.0 | 0.00 | 0.00 | 0.00 | 70 | 1019.1 |
| 20260906170003 | 86 | 246 | 0.0 | 4.0 | 0.00 | 0.00 | 0.00 | 65 | 1019.1 |
| 20260906165405 | 87 | 230 | 0.0 | 20.0 | 0.00 | 0.00 | 0.00 | 63 | 1018.1 |
| 20260906164714 | 90 | 242 | 0.0 | 20.0 | 0.00 | 0.00 | 0.00 | 57 | 1018.1 |
| 20260906163603 | 90 | 0 | 0.0 | 0.0 | 0.00 | 0.00 | 0.00 | 57 | 1018.1 |
| 20260906162703 | 90 | 45 | 0.0 | 2.0 | 0.00 | 0.00 | 0.00 | 59 | 1018.1 |
| 20260906161805 | 90 | 0 | 0.0 | 0.0 | 0.00 | 0.00 | 0.00 | 60 | 1018.1 |
| 20260906160905 | 91 | 0 | 0.0 | 0.0 | 0.00 | 0.00 | 0.00 | 61 | 1018.1 |
| 20260906160005 | 91 | 337 | 0.0 | 1.0 | 0.00 | 0.00 | 0.00 | 62 | 1018.1 |
| 20260906155403 | 92 | 1 | 0.0 | 3.0 | 0.00 | 0.00 | 0.00 | 63 | 1018.1 |
| 20260906154505 | 91 | 345 | 0.0 | 3.0 | 0.00 | 0.00 | 0.00 | 64 | 1018.1 |
| 20260906153603 | 90 | 0 | 0.0 | 0.0 | 0.00 | 0.00 | 0.00 | 65 | 1018.1 |
| 20260906152914 | 90 | 225 | 0.0 | 3.0 | 0.00 | 0.00 | 0.00 | 66 | 1018.1 |
| 20260906151803 | 89 | 315 | 0.0 | 3.0 | 0.00 | 0.00 | 0.00 | 67 | 1019.1 |
| 20260906150903 | 88 | 0 | 0.0 | 0.0 | 0.00 | 0.00 | 0.00 | 69 | 1019.1 |
| 20260906150214 | 88 | 0 | 0.0 | 0.0 | 0.00 | 0.00 | 0.00 | 70 | 1019.1 |
| 20260906145403 | 87 | 225 | 0.0 | 4.0 | 0.00 | 0.00 | 0.00 | 73 | 1019.1 |
| 20260906144713 | 88 | 0 | 0.0 | 0.0 | 0.00 | 0.00 | 0.00 | 73 | 1019.1 |
| 20260906143815 | 87 | 225 | 0.0 | 4.0 | 0.00 | 0.00 | 0.00 | 74 | 1019.1 |
| 20260906142703 | 85 | 247 | 0.0 | 13.0 | 0.00 | 0.00 | 0.00 | 75 | 1019.1 |
| 20260906141803 | 85 | 290 | 2.0 | 6.0 | 0.00 | 0.00 | 0.00 | 76 | 1019.1 |
| 20260906140903 | 86 | 332 | 0.0 | 10.0 | 0.00 | 0.00 | 0.00 | 75 | 1019.1 |
| 20260906140214 | 85 | 323 | 0.0 | 10.0 | 0.00 | 0.00 | 0.00 | 76 | 1019.1 |
| 20260906135403 | 85 | 331 | 5.0 | 73.0 | 0.00 | 0.00 | 0.00 | 76 | 1019.1 |
| 20260906134715 | 85 | 318 | 0.0 | 37.0 | 0.00 | 0.00 | 0.00 | 75 | 1019.1 |
| 20260906133605 | 87 | 289 | 0.0 | 44.0 | 0.00 | 0.00 | 0.00 | 74 | 1018.1 |
| 20260906132703 | 86 | 275 | 30.0 | 35.0 | 0.00 | 0.00 | 0.00 | 75 | 1018.1 |
| 20260906132013 | 86 | 276 | 0.0 | 37.0 | 0.00 | 0.00 | 0.00 | 74 | 1018.1 |
| 20260906130906 | 87 | 247 | 57.0 | 57.0 | 0.00 | 0.00 | 0.00 | 75 | 1018.1 |
| 20260906130003 | 87 | 304 | 0.0 | 26.0 | 0.00 | 0.00 | 0.00 | 75 | 1018.1 |
| 20260906125403 | 87 | 315 | 0.0 | 26.0 | 0.00 | 0.00 | 0.00 | 75 | 1017.1 |
| 20260906124503 | 86 | 315 | 0.0 | 74.0 | 0.00 | 0.00 | 0.00 | 76 | 1017.1 |
| 20260906123605 | 85 | 237 | 0.0 | 46.0 | 0.00 | 0.00 | 0.00 | 78 | 1017.1 |
| 20260906122703 | 84 | 225 | 0.0 | 19.0 | 0.00 | 0.00 | 0.00 | 78 | 1017.1 |
| 20260906121803 | 83 | 262 | 0.0 | 39.0 | 0.00 | 0.00 | 0.00 | 79 | 1017.1 |
| 20260906120905 | 83 | 251 | 17.0 | 54.0 | 0.00 | 0.00 | 0.00 | 78 | 1017.1 |
| 20260906120215 | 84 | 315 | 39.0 | 39.0 | 0.00 | 0.00 | 0.00 | 77 | 1017.1 |
| 20260906115405 | 84 | 282 | 0.0 | 62.0 | 0.00 | 0.00 | 0.00 | 78 | 1017.1 |
| 20260906114503 | 85 | 250 | 0.0 | 37.0 | 0.00 | 0.00 | 0.00 | 76 | 1017.1 |
| 20260906113603 | 87 | 225 | 0.0 | 53.0 | 0.00 | 0.00 | 0.00 | 76 | 1018.1 |
| 20260906112703 | 88 | 315 | 0.0 | 42.0 | 0.00 | 0.00 | 0.00 | 74 | 1017.1 |
| 20260906111803 | 89 | 315 | 0.0 | 42.0 | 0.00 | 0.00 | 0.00 | 74 | 1017.1 |
| 20260906110904 | 89 | 247 | 0.0 | 39.0 | 0.00 | 0.00 | 0.00 | 74 | 1017.1 |
| 20260906110004 | 90 | 315 | 39.0 | 39.0 | 0.00 | 0.00 | 0.00 | 75 | 1017.1 |
| 20260906105403 | 89 | 0 | 0.0 | 0.0 | 0.00 | 0.00 | 0.00 | 77 | 1017.1 |
| 20260906104503 | 87 | 0 | 0.0 | 0.0 | 0.00 | 0.00 | 0.00 | 79 | 1017.1 |
| 20260906103603 | 85 | 22 | 0.0 | 1.0 | 0.00 | 0.00 | 0.00 | 82 | 1017.1 |
| 20260906102705 | 85 | 158 | 0.0 | 36.0 | 0.00 | 0.00 | 0.00 | 82 | 1017.1 |
| 20260906101805 | 83 | 90 | 0.0 | 39.0 | 0.00 | 0.00 | 0.00 | 84 | 1017.1 |
| 20260906100905 | 82 | 90 | 15.0 | 34.0 | 0.00 | 0.00 | 0.00 | 85 | 1017.1 |
| 20260906100005 | 82 | 22 | 0.0 | 31.0 | 0.00 | 0.00 | 0.00 | 86 | 1017.1 |
| 20260906095405 | 81 | 0 | 0.0 | 0.0 | 0.00 | 0.00 | 0.00 | 87 | 1017.1 |
| 20260906094504 | 81 | 0 | 0.0 | 0.0 | 0.00 | 0.00 | 0.00 | 89 | 1017.1 |
| 20260906093603 | 80 | 22 | 0.0 | 78.0 | 0.00 | 0.00 | 0.00 | 90 | 1017.1 |
| 20260906092914 | 80 | 22 | 1.0 | 1.0 | 0.00 | 0.00 | 0.00 | 91 | 1017.1 |
| 20260906092013 | 78 | 315 | 0.0 | 77.0 | 0.00 | 0.00 | 0.00 | 93 | 1018.1 |
| 20260906090903 | 77 | 22 | 0.0 | 1.0 | 0.00 | 0.00 | 0.00 | 94 | 1018.1 |
| 20260906090005 | 77 | 0 | 0.0 | 0.0 | 0.00 | 0.00 | 0.00 | 95 | 1018.1 |
| 20260906085403 | 77 | 202 | 0.0 | 39.0 | 0.00 | 0.00 | 0.00 | 95 | 1018.1 |
| 20260906084503 | 76 | 180 | 0.0 | 77.0 | 0.00 | 0.00 | 0.00 | 96 | 1018.1 |
| 20260906083812 | 76 | 90 | 0.0 | 77.0 | 0.00 | 0.00 | 0.00 | 96 | 1017.1 |
| 20260906082703 | 76 | 22 | 0.0 | 38.0 | 0.00 | 0.00 | 0.00 | 97 | 1017.1 |
| 20260906081803 | 75 | 22 | 34.0 | 75.0 | 0.00 | 0.00 | 0.00 | 98 | 1017.1 |
| 20260906080905 | 75 | 58 | 0.0 | 51.0 | 0.00 | 0.00 | 0.00 | 98 | 1017.1 |
| 20260906080216 | 75 | 67 | 0.0 | 40.0 | 0.00 | 0.00 | 0.00 | 98 | 1017.1 |
| 20260906075403 | 74 | 22 | 0.0 | 77.0 | 0.00 | 0.00 | 0.00 | 98 | 1017.1 |
| 20260906074503 | 74 | 22 | 77.0 | 77.0 | 0.00 | 0.00 | 0.00 | 98 | 1017.1 |
| 20260906073604 | 73 | 0 | 0.0 | 0.0 | 0.00 | 0.00 | 0.00 | 98 | 1018.1 |
| 20260906072705 | 73 | 90 | 0.0 | 39.0 | 0.00 | 0.00 | 0.00 | 98 | 1018.1 |
| 20260906071805 | 72 | 90 | 0.0 | 77.0 | 0.00 | 0.00 | 0.00 | 98 | 1018.1 |
| 20260906070904 | 72 | 0 | 0.0 | 0.0 | 0.00 | 0.00 | 0.00 | 98 | 1018.1 |
| 20260906070003 | 72 | 90 | 0.0 | 45.0 | 0.00 | 0.00 | 0.00 | 98 | 1018.1 |
| 20260906065403 | 72 | 90 | 0.0 | 77.0 | 0.00 | 0.00 | 0.00 | 98 | 1017.1 |
| 20260906064505 | 72 | 90 | 77.0 | 77.0 | 0.00 | 0.00 | 0.00 | 98 | 1017.1 |
| 20260906063603 | 72 | 202 | 0.0 | 77.0 | 0.00 | 0.00 | 0.00 | 98 | 1017.1 |
| 20260906062703 | 71 | 0 | 0.0 | 0.0 | 0.00 | 0.00 | 0.00 | 98 | 1017.1 |
| 20260906061805 | 71 | 90 | 0.0 | 77.0 | 0.00 | 0.00 | 0.00 | 98 | 1017.1 |
| 20260906060903 | 71 | 0 | 0.0 | 0.0 | 0.00 | 0.00 | 0.00 | 98 | 1017.1 |
| 20260906060006 | 71 | 34 | 0.0 | 77.0 | 0.00 | 0.00 | 0.00 | 98 | 1017.1 |
| 20260906055403 | 71 | 37 | 77.0 | 77.0 | 0.00 | 0.00 | 0.00 | 98 | 1018.1 |
| 20260906054503 | 71 | 0 | 0.0 | 0.0 | 0.00 | 0.00 | 0.00 | 98 | 1018.1 |
| 20260906053603 | 71 | 0 | 0.0 | 0.0 | 0.00 | 0.00 | 0.00 | 98 | 1017.1 |
| 20260906052912 | 71 | 90 | 0.0 | 77.0 | 0.00 | 0.00 | 0.00 | 98 | 1017.1 |
| 20260906051803 | 72 | 0 | 0.0 | 0.0 | 0.00 | 0.00 | 0.00 | 98 | 1017.1 |
| 20260906050903 | 72 | 180 | 0.0 | 77.0 | 0.00 | 0.00 | 0.00 | 98 | 1017.1 |
| 20260906050005 | 72 | 0 | 0.0 | 0.0 | 0.00 | 0.00 | 0.00 | 98 | 1017.1 |
| 20260906045403 | 72 | 90 | 0.0 | 77.0 | 0.00 | 0.00 | 0.00 | 98 | 1017.1 |
| 20260906044503 | 72 | 0 | 0.0 | 0.0 | 0.00 | 0.00 | 0.00 | 98 | 1017.1 |
| 20260906043603 | 72 | 180 | 0.0 | 76.0 | 0.00 | 0.00 | 0.00 | 98 | 1017.1 |
| 20260906042705 | 72 | 0 | 0.0 | 0.0 | 0.00 | 0.00 | 0.00 | 97 | 1017.1 |
| 20260906041803 | 72 | 0 | 0.0 | 0.0 | 0.00 | 0.00 | 0.00 | 97 | 1017.1 |
| 20260906041113 | 72 | 225 | 0.0 | 78.0 | 0.00 | 0.00 | 0.00 | 97 | 1017.1 |
| 20260906040005 | 72 | 225 | 1.0 | 1.0 | 0.00 | 0.00 | 0.00 | 97 | 1017.1 |
| 20260906035405 | 72 | 225 | 1.0 | 1.0 | 0.00 | 0.00 | 0.00 | 97 | 1017.1 |
| 20260906034505 | 72 | 0 | 0.0 | 0.0 | 0.00 | 0.00 | 0.00 | 96 | 1017.1 |
| 20260906033812 | 72 | 0 | 0.0 | 0.0 | 0.00 | 0.00 | 0.00 | 96 | 1017.1 |
| 20260906032914 | 72 | 0 | 0.0 | 0.0 | 0.00 | 0.00 | 0.00 | 95 | 1017.1 |
| 20260906031803 | 72 | 180 | 0.0 | 77.0 | 0.00 | 0.00 | 0.00 | 95 | 1017.1 |
| 20260906030905 | 72 | 0 | 0.0 | 0.0 | 0.00 | 0.00 | 0.00 | 94 | 1017.1 |
| 20260906030004 | 72 | 0 | 0.0 | 0.0 | 0.00 | 0.00 | 0.00 | 94 | 1017.1 |
| 20260906025405 | 72 | 0 | 0.0 | 0.0 | 0.00 | 0.00 | 0.00 | 94 | 1017.1 |
| 20260906024715 | 72 | 0 | 0.0 | 0.0 | 0.00 | 0.00 | 0.00 | 94 | 1017.1 |
| 20260906023603 | 73 | 0 | 0.0 | 0.0 | 0.00 | 0.00 | 0.00 | 93 | 1018.1 |
| 20260906022703 | 73 | 0 | 0.0 | 0.0 | 0.00 | 0.00 | 0.00 | 93 | 1018.1 |
| 20260906021804 | 73 | 0 | 0.0 | 0.0 | 0.00 | 0.00 | 0.00 | 92 | 1018.1 |
| 20260906020906 | 73 | 0 | 0.0 | 0.0 | 0.00 | 0.00 | 0.00 | 90 | 1018.1 |
| 20260906020005 | 73 | 202 | 0.0 | 77.0 | 0.00 | 0.00 | 0.00 | 87 | 1018.1 |
| 20260906015403 | 73 | 202 | 0.0 | 77.0 | 0.00 | 0.00 | 0.00 | 86 | 1018.1 |
| 20260906014505 | 73 | 208 | 39.0 | 39.0 | 0.00 | 0.00 | 0.00 | 82 | 1018.1 |
| 20260906013603 | 73 | 0 | 0.0 | 0.0 | 0.00 | 0.00 | 0.00 | 81 | 1017.1 |
| 20260906012913 | 73 | 0 | 0.0 | 0.0 | 0.00 | 0.00 | 0.00 | 81 | 1017.1 |
| 20260906011803 | 72 | 0 | 0.0 | 0.0 | 0.00 | 0.00 | 0.00 | 83 | 1017.1 |
| 20260906010904 | 72 | 0 | 0.0 | 0.0 | 0.00 | 0.00 | 0.00 | 84 | 1017.1 |
| 20260906010003 | 72 | 0 | 0.0 | 0.0 | 0.00 | 0.00 | 0.00 | 86 | 1017.1 |
| 20260906005403 | 72 | 0 | 0.0 | 0.0 | 0.00 | 0.00 | 0.00 | 87 | 1017.1 |
| 20260906004503 | 72 | 0 | 0.0 | 0.0 | 0.00 | 0.00 | 0.00 | 88 | 1017.1 |
| 20260906003815 | 72 | 0 | 0.0 | 0.0 | 0.00 | 0.00 | 0.00 | 88 | 1017.1 |
| 20260906002703 | 72 | 0 | 0.0 | 0.0 | 0.00 | 0.00 | 0.00 | 89 | 1018.1 |
| 20260906001803 | 73 | 0 | 0.0 | 0.0 | 0.00 | 0.00 | 0.00 | 89 | 1018.1 |
| 20260906000905 | 73 | 0 | 0.0 | 0.0 | 0.00 | 0.00 | 0.00 | 89 | 1018.1 |
| 20260906000006 | 73 | 0 | 0.0 | 0.0 | 0.00 | 0.00 | 0.00 | 88 | 1018.1 |
| 20260905235614 | 73 | 0 | 0.0 | 0.0 | 0.00 | 0.00 | 0.00 | 88 | 1018.1 |
| 20260905234503 | 73 | 0 | 0.0 | 0.0 | 0.00 | 0.00 | 0.00 | 87 | 1018.1 |
| 20260905233813 | 73 | 0 | 0.0 | 0.0 | 0.00 | 0.00 | 0.00 | 88 | 1018.1 |
| 20260905232914 | 73 | 0 | 0.0 | 0.0 | 0.00 | 0.00 | 0.00 | 88 | 1018.1 |
| 20260905231803 | 74 | 0 | 0.0 | 0.0 | 0.00 | 0.00 | 0.00 | 88 | 1018.1 |
| 20260905230903 | 74 | 0 | 0.0 | 0.0 | 0.00 | 0.00 | 0.00 | 88 | 1018.1 |
| 20260905230005 | 73 | 0 | 0.0 | 0.0 | 0.00 | 0.00 | 0.00 | 86 | 1018.1 |
| 20260905225405 | 73 | 0 | 0.0 | 0.0 | 0.00 | 0.00 | 0.00 | 85 | 1018.1 |
| 20260905224715 | 73 | 0 | 0.0 | 0.0 | 0.00 | 0.00 | 0.00 | 83 | 1018.1 |
| 20260905223815 | 73 | 0 | 0.0 | 0.0 | 0.00 | 0.00 | 0.00 | 81 | 1018.1 |
| 20260905222703 | 74 | 0 | 0.0 | 0.0 | 0.00 | 0.00 | 0.00 | 80 | 1018.1 |
| 20260905221803 | 74 | 0 | 0.0 | 0.0 | 0.00 | 0.00 | 0.00 | 79 | 1018.1 |
| 20260905220903 | 74 | 0 | 0.0 | 0.0 | 0.00 | 0.00 | 0.00 | 75 | 1018.1 |
| 20260905220004 | 74 | 0 | 0.0 | 0.0 | 0.00 | 0.00 | 0.00 | 72 | 1018.1 |
| 20260905215405 | 74 | 0 | 0.0 | 0.0 | 0.00 | 0.00 | 0.00 | 71 | 1018.1 |
| 20260905214505 | 75 | 0 | 0.0 | 0.0 | 0.00 | 0.00 | 0.00 | 70 | 1018.1 |
| 20260905213603 | 75 | 0 | 0.0 | 0.0 | 0.00 | 0.00 | 0.00 | 68 | 1018.1 |
| 20260905212703 | 76 | 0 | 0.0 | 0.0 | 0.00 | 0.00 | 0.00 | 68 | 1018.1 |
| 20260905211805 | 76 | 0 | 0.0 | 0.0 | 0.00 | 0.00 | 0.00 | 66 | 1018.1 |
| 20260905210903 | 76 | 0 | 0.0 | 0.0 | 0.00 | 0.00 | 0.00 | 64 | 1018.1 |
| 20260905210003 | 75 | 0 | 0.0 | 0.0 | 0.00 | 0.00 | 0.00 | 64 | 1018.1 |
| 20260905205405 | 75 | 0 | 0.0 | 0.0 | 0.00 | 0.00 | 0.00 | 65 | 1018.1 |
| 20260905204503 | 75 | 0 | 0.0 | 0.0 | 0.00 | 0.00 | 0.00 | 66 | 1018.1 |
| 20260905203603 | 75 | 0 | 0.0 | 0.0 | 0.00 | 0.00 | 0.00 | 65 | 1018.1 |
| 20260905202703 | 76 | 0 | 0.0 | 0.0 | 0.00 | 0.00 | 0.00 | 64 | 1018.1 |
| 20260905201803 | 76 | 0 | 0.0 | 0.0 | 0.00 | 0.00 | 0.00 | 64 | 1018.1 |
| 20260905201116 | 76 | 0 | 0.0 | 0.0 | 0.00 | 0.00 | 0.00 | 63 | 1018.1 |
| 20260905200005 | 77 | 0 | 0.0 | 0.0 | 0.00 | 0.00 | 0.00 | 63 | 1018.1 |
| 20260905195613 | 77 | 0 | 0.0 | 0.0 | 0.00 | 0.00 | 0.00 | 62 | 1017.1 |
| 20260905194505 | 77 | 0 | 0.0 | 0.0 | 0.00 | 0.00 | 0.00 | 62 | 1017.1 |
| 20260905193603 | 78 | 0 | 0.0 | 0.0 | 0.00 | 0.00 | 0.00 | 61 | 1017.1 |
| 20260905192704 | 78 | 0 | 0.0 | 0.0 | 0.00 | 0.00 | 0.00 | 61 | 1017.1 |
| 20260905191803 | 79 | 0 | 0.0 | 0.0 | 0.00 | 0.00 | 0.00 | 59 | 1017.1 |
| 20260905190903 | 80 | 0 | 0.0 | 0.0 | 0.00 | 0.00 | 0.00 | 59 | 1017.1 |
| 20260905190003 | 80 | 0 | 0.0 | 0.0 | 0.00 | 0.00 | 0.00 | 59 | 1017.1 |
| 20260905185614 | 80 | 0 | 0.0 | 0.0 | 0.00 | 0.00 | 0.00 | 59 | 1017.1 |
| 20260905184505 | 81 | 0 | 0.0 | 0.0 | 0.00 | 0.00 | 0.00 | 57 | 1017.1 |
| 20260905183603 | 82 | 0 | 0.0 | 0.0 | 0.00 | 0.00 | 0.00 | 57 | 1017.1 |
| 20260905182703 | 83 | 0 | 0.0 | 0.0 | 0.00 | 0.00 | 0.00 | 56 | 1017.1 |
| 20260905181803 | 84 | 0 | 0.0 | 0.0 | 0.00 | 0.00 | 0.00 | 55 | 1017.1 |
| 20260905180903 | 85 | 0 | 0.0 | 0.0 | 0.00 | 0.00 | 0.00 | 55 | 1017.1 |
| 20260905180005 | 86 | 0 | 0.0 | 0.0 | 0.00 | 0.00 | 0.00 | 55 | 1017.1 |
| 20260905175616 | 86 | 0 | 0.0 | 0.0 | 0.00 | 0.00 | 0.00 | 54 | 1017.1 |
| 20260905174503 | 87 | 0 | 0.0 | 0.0 | 0.00 | 0.00 | 0.00 | 56 | 1017.1 |
| 20260905173603 | 87 | 0 | 0.0 | 0.0 | 0.00 | 0.00 | 0.00 | 55 | 1017.1 |
| 20260905172703 | 87 | 0 | 0.0 | 0.0 | 0.00 | 0.00 | 0.00 | 55 | 1017.1 |